When you browse on this site, cookies collect data to enhance your experience and personalize the content and advertising you see.
Visit our Privacy Policy to learn more. By continuing to use the site, you agree to this use of cookies and data.
  • In Deutschland
  • Länderverzeichnis
  • Für 7 Tage
  • Wassertemperatur
  • Wetterkarte
  • Widgets
  • user-avatar
    Anmelden

    Stündliche Wetter Novyy Zavod

    Heute, 22 Oktober, Dienstag

    Zeit Temperatur Niederschläge Wind Luftdruck Luftfeuchtigkeit
    00:00 0°C° 0.1 mm 4 m/S 750 mmHg 95%
    01:00 0°C° 0.1 mm 4 m/S 750 mmHg 96%
    02:00 +1°C° 0 mm 5 m/S 749 mmHg 95%
    03:00 +1°C° 0 mm 5 m/S 748 mmHg 94%
    04:00 +1°C° 0 mm 4 m/S 747 mmHg 92%
    05:00 +2°C° 0.4 mm 5 m/S 747 mmHg 93%
    06:00 +2°C° 0.4 mm 5 m/S 746 mmHg 93%
    07:00 +2°C° 0.4 mm 6 m/S 745 mmHg 93%
    08:00 +3°C° 0.9 mm 6 m/S 744 mmHg 92%
    09:00 +3°C° 0.9 mm 6 m/S 744 mmHg 91%
    10:00 +4°C° 0.9 mm 7 m/S 744 mmHg 90%
    11:00 +5°C° 0 mm 6 m/S 744 mmHg 89%
    12:00 +5°C° 0 mm 6 m/S 744 mmHg 87%
    13:00 +7°C° 0 mm 6 m/S 744 mmHg 86%
    14:00 +6°C° 0 mm 5 m/S 744 mmHg 86%
    15:00 +5°C° 0 mm 5 m/S 744 mmHg 85%
    16:00 +4°C° 0 mm 4 m/S 745 mmHg 85%
    17:00 +3°C° 0 mm 4 m/S 745 mmHg 85%
    18:00 +1°C° 0 mm 4 m/S 745 mmHg 85%
    19:00 0°C° 0 mm 4 m/S 746 mmHg 86%
    20:00 +1°C° 0 mm 3 m/S 746 mmHg 86%
    21:00 +1°C° 0 mm 3 m/S 746 mmHg 87%
    22:00 +1°C° 0 mm 3 m/S 746 mmHg 87%
    23:00 0°C° 0 mm 3 m/S 746 mmHg 89%

    Morgen, 23 Oktober, Mittwoch

    Zeit Temperatur Niederschläge Wind Luftdruck Luftfeuchtigkeit
    00:00 0°C° 0 mm 3 m/S 746 mmHg 90%
    01:00 -1°C° 0 mm 2 m/S 746 mmHg 91%
    02:00 -1°C° 0 mm 2 m/S 746 mmHg 91%
    03:00 -1°C° 0 mm 2 m/S 747 mmHg 91%
    04:00 -1°C° 0 mm 2 m/S 747 mmHg 91%
    05:00 -1°C° 0 mm 3 m/S 747 mmHg 90%
    06:00 -1°C° 0 mm 3 m/S 747 mmHg 89%
    07:00 -2°C° 0 mm 3 m/S 747 mmHg 88%
    08:00 -1°C° 0 mm 3 m/S 747 mmHg 85%
    09:00 0°C° 0 mm 3 m/S 747 mmHg 82%
    10:00 -1°C° 0 mm 4 m/S 747 mmHg 79%
    11:00 0°C° 0 mm 4 m/S 746 mmHg 77%
    12:00 +1°C° 0 mm 4 m/S 746 mmHg 74%
    13:00 +1°C° 0 mm 4 m/S 746 mmHg 72%
    14:00 +1°C° 0 mm 4 m/S 745 mmHg 75%
    15:00 +1°C° 0 mm 4 m/S 745 mmHg 77%
    16:00 0°C° 0 mm 4 m/S 745 mmHg 80%
    17:00 0°C° 0 mm 4 m/S 744 mmHg 82%
    18:00 0°C° 0 mm 4 m/S 744 mmHg 84%
    19:00 0°C° 0 mm 4 m/S 743 mmHg 86%
    20:00 +1°C° 0 mm 5 m/S 743 mmHg 87%
    21:00 +1°C° 0 mm 5 m/S 742 mmHg 88%
    22:00 +1°C° 0 mm 5 m/S 741 mmHg 89%
    23:00 +2°C° 0 mm 5 m/S 741 mmHg 88%

    übermorgen, 24 Oktober, Donnerstag

    Zeit Temperatur Niederschläge Wind Luftdruck Luftfeuchtigkeit
    00:00 +3°C° 0 mm 5 m/S 741 mmHg 87%
    01:00 +3°C° 0 mm 6 m/S 740 mmHg 87%
    02:00 +5°C° 0.1 mm 5 m/S 740 mmHg 88%
    03:00 +5°C° 0.1 mm 5 m/S 741 mmHg 89%
    04:00 +5°C° 0.1 mm 5 m/S 741 mmHg 89%
    05:00 +5°C° 0 mm 5 m/S 741 mmHg 89%
    06:00 +4°C° 0 mm 4 m/S 742 mmHg 89%
    07:00 +4°C° 0 mm 4 m/S 743 mmHg 89%
    08:00 +4°C° 0 mm 4 m/S 743 mmHg 86%
    09:00 +5°C° 0 mm 5 m/S 744 mmHg 83%
    10:00 +5°C° 0 mm 5 m/S 744 mmHg 80%
    11:00 +5°C° 0 mm 5 m/S 745 mmHg 77%
    12:00 +5°C° 0 mm 5 m/S 745 mmHg 75%
    13:00 +6°C° 0 mm 4 m/S 745 mmHg 72%
    14:00 +5°C° 0 mm 4 m/S 745 mmHg 75%
    15:00 +5°C° 0 mm 3 m/S 746 mmHg 78%
    16:00 +5°C° 0 mm 2 m/S 746 mmHg 81%
    17:00 +5°C° 0 mm 2 m/S 746 mmHg 82%
    18:00 +4°C° 0 mm 2 m/S 747 mmHg 83%
    19:00 +3°C° 0 mm 3 m/S 747 mmHg 84%
    20:00 +3°C° 0 mm 3 m/S 747 mmHg 85%
    21:00 +2°C° 0 mm 3 m/S 748 mmHg 86%
    22:00 +2°C° 0 mm 3 m/S 748 mmHg 87%
    23:00 +1°C° 0 mm 3 m/S 748 mmHg 88%

    25 Oktober, Freitag

    Zeit Temperatur Niederschläge Wind Luftdruck Luftfeuchtigkeit
    00:00 +1°C° 0 mm 3 m/S 748 mmHg 90%
    01:00 0°C° 0 mm 3 m/S 748 mmHg 91%
    02:00 0°C° 0 mm 3 m/S 748 mmHg 91%
    03:00 0°C° 0 mm 3 m/S 748 mmHg 91%
    04:00 0°C° 0 mm 3 m/S 748 mmHg 91%
    05:00 0°C° 0 mm 3 m/S 748 mmHg 91%
    06:00 0°C° 0 mm 3 m/S 748 mmHg 90%
    07:00 0°C° 0 mm 3 m/S 749 mmHg 90%
    08:00 0°C° 0 mm 4 m/S 749 mmHg 87%
    09:00 +1°C° 0 mm 4 m/S 749 mmHg 85%
    10:00 +3°C° 0 mm 4 m/S 749 mmHg 82%
    11:00 +3°C° 0 mm 4 m/S 748 mmHg 81%
    12:00 +4°C° 0 mm 4 m/S 748 mmHg 80%
    13:00 +4°C° 0 mm 4 m/S 748 mmHg 79%
    14:00 +4°C° 0 mm 4 m/S 748 mmHg 82%
    15:00 +3°C° 0 mm 4 m/S 748 mmHg 86%
    16:00 +3°C° 0 mm 4 m/S 748 mmHg 89%
    17:00 +3°C° 0 mm 3 m/S 748 mmHg 88%
    18:00 +3°C° 0 mm 3 m/S 748 mmHg 88%
    19:00 +3°C° 0 mm 3 m/S 748 mmHg 87%
    20:00 +3°C° 0 mm 3 m/S 748 mmHg 88%
    21:00 +4°C° 0 mm 4 m/S 748 mmHg 88%
    22:00 +4°C° 0 mm 4 m/S 748 mmHg 89%
    23:00 +4°C° 0 mm 4 m/S 748 mmHg 89%

    26 Oktober, Samstag

    Zeit Temperatur Niederschläge Wind Luftdruck Luftfeuchtigkeit
    00:00 +4°C° 0 mm 4 m/S 748 mmHg 88%
    01:00 +4°C° 0 mm 4 m/S 748 mmHg 88%
    02:00 +4°C° 0 mm 4 m/S 749 mmHg 89%
    03:00 +3°C° 0 mm 4 m/S 749 mmHg 90%
    04:00 +3°C° 0 mm 4 m/S 750 mmHg 91%
    05:00 +3°C° 0 mm 4 m/S 750 mmHg 91%
    06:00 +3°C° 0 mm 3 m/S 750 mmHg 91%
    07:00 +3°C° 0 mm 3 m/S 751 mmHg 90%
    08:00 +3°C° 0 mm 3 m/S 751 mmHg 90%
    09:00 +5°C° 0 mm 2 m/S 751 mmHg 90%
    10:00 +5°C° 0 mm 2 m/S 752 mmHg 90%
    11:00 +6°C° 0 mm 2 m/S 752 mmHg 88%
    12:00 +5°C° 0 mm 3 m/S 752 mmHg 86%
    13:00 +7°C° 0 mm 3 m/S 752 mmHg 84%
    14:00 +7°C° 0 mm 3 m/S 751 mmHg 84%
    15:00 +5°C° 0 mm 3 m/S 751 mmHg 84%
    16:00 +5°C° 0 mm 3 m/S 751 mmHg 83%
    17:00 +5°C° 0 mm 4 m/S 751 mmHg 83%
    18:00 +6°C° 0 mm 5 m/S 750 mmHg 83%
    19:00 +6°C° 0 mm 5 m/S 750 mmHg 83%
    20:00 +6°C° 0 mm 5 m/S 749 mmHg 84%
    21:00 +5°C° 0 mm 6 m/S 749 mmHg 85%
    22:00 +5°C° 0 mm 6 m/S 748 mmHg 86%
    23:00 +7°C° 0 mm 5 m/S 748 mmHg 86%

    27 Oktober, Sonntag

    Zeit Temperatur Niederschläge Wind Luftdruck Luftfeuchtigkeit
    00:00 +7°C° 0 mm 5 m/S 747 mmHg 87%
    01:00 +7°C° 0 mm 5 m/S 747 mmHg 88%
    02:00 +7°C° 0 mm 5 m/S 747 mmHg 87%
    03:00 +7°C° 0 mm 5 m/S 747 mmHg 86%
    04:00 +7°C° 0 mm 5 m/S 747 mmHg 86%
    05:00 +7°C° 0 mm 4 m/S 746 mmHg 86%
    06:00 +6°C° 0 mm 4 m/S 746 mmHg 87%
    07:00 +6°C° 0 mm 4 m/S 746 mmHg 88%
    08:00 +7°C° 0 mm 4 m/S 746 mmHg 85%
    09:00 +8°C° 0 mm 4 m/S 746 mmHg 83%
    10:00 +9°C° 0 mm 5 m/S 746 mmHg 80%
    11:00 +10°C° 0 mm 5 m/S 745 mmHg 75%
    12:00 +11°C° 0 mm 6 m/S 745 mmHg 69%
    13:00 +13°C° 0 mm 6 m/S 745 mmHg 64%
    14:00 +11°C° 0 mm 6 m/S 745 mmHg 67%
    15:00 +11°C° 0 mm 6 m/S 744 mmHg 69%
    16:00 +10°C° 0 mm 6 m/S 744 mmHg 72%
    17:00 +10°C° 0 mm 6 m/S 743 mmHg 74%
    18:00 +10°C° 0 mm 7 m/S 743 mmHg 77%
    19:00 +9°C° 0 mm 7 m/S 743 mmHg 79%
    20:00 +9°C° 0 mm 7 m/S 743 mmHg 79%
    21:00 +9°C° 0 mm 7 m/S 742 mmHg 78%
    22:00 +9°C° 0 mm 7 m/S 742 mmHg 78%
    23:00 +8°C° 0 mm 6 m/S 742 mmHg 78%

    28 Oktober, Montag

    Zeit Temperatur Niederschläge Wind Luftdruck Luftfeuchtigkeit
    00:00 +8°C° 0 mm 6 m/S 741 mmHg 77%
    01:00 +8°C° 0 mm 6 m/S 741 mmHg 76%
    02:00 +7°C° 0 mm 6 m/S 741 mmHg 75%
    03:00 +7°C° 0 mm 6 m/S 740 mmHg 74%
    04:00 +7°C° 0 mm 6 m/S 740 mmHg 73%
    05:00 +7°C° 0 mm 6 m/S 739 mmHg 73%
    06:00 +7°C° 0 mm 6 m/S 739 mmHg 72%
    07:00 +7°C° 0 mm 6 m/S 739 mmHg 72%
    08:00 +8°C° 0 mm 6 m/S 738 mmHg 70%
    09:00 +8°C° 0 mm 6 m/S 738 mmHg 69%
    10:00 +9°C° 0 mm 7 m/S 738 mmHg 67%
    11:00 +9°C° 0 mm 6 m/S 737 mmHg 68%
    12:00 +9°C° 0 mm 6 m/S 737 mmHg 68%
    13:00 +9°C° 0 mm 6 m/S 737 mmHg 69%
    14:00 +9°C° 0 mm 6 m/S 736 mmHg 70%
    15:00 +9°C° 0 mm 5 m/S 736 mmHg 71%
    16:00 +9°C° 0 mm 5 m/S 736 mmHg 72%
    17:00 +9°C° 0 mm 5 m/S 736 mmHg 73%
    18:00 +8°C° 0 mm 5 m/S 735 mmHg 75%
    19:00 +8°C° 0 mm 5 m/S 735 mmHg 76%
    20:00 +8°C° 0 mm 5 m/S 735 mmHg 78%
    21:00 +8°C° 0 mm 5 m/S 735 mmHg 79%
    22:00 +7°C° 0 mm 5 m/S 735 mmHg 81%
    23:00 +7°C° 0.3 mm 4 m/S 735 mmHg 84%
    Mehr zeigen